Location: Newark
(48.1333°N, 17.1000°E)
Time: 16:00:16
(UTC+00:00)

N. Korean satellite - Pass Details

Date: 01 February 2020
Orbit: 456 x 506 km, 97.2° (Epoch: 17 February)

Event Time Altitude Azimuth Distance (km) Brightness Sun altitude
Rises 16:28:39 0° 194° (SSW) 2,460 10.6 -6.8°
Reaches altitude 10° 16:30:55 10° 209° (SSW) 1,596 9.9 -7.1°
Maximum altitude 16:33:46 24° 265° (W) 988 9.2 -7.6°
Drops below altitude 10° 16:36:40 10° 322° (NW) 1,622 9.5 -8.1°
Sets 16:39:01 0° 336° (NNW) 2,512 10.3 -8.4°
